Retour au catalogue

STARLINK-3304

ActifCommunicationsVLEO
NORAD 50161·PAYLOAD·🇺🇸 United States

Lancé Dec 18, 2021 depuis Vandenberg Space Force Base

Loading…

Prochains Passages (prochaines 24 heures)

TLE

FraisSource: CelesTrak SupGP

Époque: Sep 14, 2026, 14:09 UTC

1 50161C 21125F   26257.59006944  .00030890  00000+0  88370-3 0  2578
2 50161  53.1575 119.0402 0001299  95.5538 204.0912 15.35386260    12

Suivez STARLINK-3304 en temps réel avec AllMySat

Download on the App Store